Location: Observatoire
(46.1952°N, 5.3391°E)
Time: 03:53:13
(UTC+01:00)

Explorer 7 - Pass Details

Date: 23 February 2026
Orbit: 430 x 541 km, 50.2° (Epoch: 13 March)

Event Time Altitude Azimuth Distance (km) Brightness Sun altitude
Rises 16:58:13 0° 286° (WNW) 2,447 10.9 11.8°
Reaches altitude 10° 17:00:22 10° 293° (WNW) 1,592 9.9 11.4°
Maximum altitude 17:03:50 45° 8° (N) 643 7.1 10.9°
Drops below altitude 10° 17:07:26 10° 82° (E) 1,652 8.7 10.3°
Sets 17:09:43 0° 89° (E) 2,554 9.7 10.0°
